[[{"header":{"parameterUnit":"m.s-1","parameterCategory":2,"la1":30.2991,"la2":30.254,"lo1":-89.0895,"lo2":-89.0444,"dx":0.0017,"dy":0.0017,"nx":28,"ny":28,"refTime":"2022-12-05T15:00:00:Z","depth":"0","parameterNumber":2,"parameterNumberName":"U-component_of_CURRENTS"},"data":[0,0,0,0,0,0,0,0,0,0,0,0,0,0,0,0,0,0,0,0,0,0,0,0,0,0,0,0,0,0,0,0,0,0,0,0,0,0,0,0,0,0,0,0,0,0,0,0,0,0,0,0,0,0,0,0,0,0,0.3729,0.3727,0,0.3661,0.3661,0.3661,0.3477,0.3472,0.3467,0.3462,0.3599,0.3607,0.3615,0,0,0,0,0,0,0,0,0,0,0,0,0,0.3633,0.3637,0.3729,0.3727,0.3725,0.3661,0.3661,0.3661,0.3478,0.3472,0.3465,0.346,0.3596,0.3606,0.3616,0,0,0,0,0,0,0,0,0,0,0,0,0,0.3642,0.3639,0.3729,0.3618,0.3606,0.3661,0.3661,0.3661,0.3479,0.3471,0.3464,0.3457,0.3593,0.3605,0.3617,0.3843,0,0,0.3655,0.366,0,0,0,0,0,0,0,0,0.3642,0.3647,0.3636,0.3625,0.3612,0.356,0.3676,0.3728,0.3481,0.3539,0.3462,0.3453,0.3604,0.3614,0.3631,0.385,0.3855,0.3656,0.3664,0.3669,0.3672,0,0,0,0,0,0,0,0.3641,0.3648,0.3713,0.3634,0.362,0.3547,0.3542,0.3685,0.3626,0.3533,0.3517,0.3494,0.3599,0.3619,0.3633,0.3857,0.3656,0.3667,0.3674,0.3679,0.4245,0.4253,0,0,0,0,0,0,0.3641,0.365,0.3715,0.371,0.3596,0.3555,0.3549,0.3593,0.362,0.3611,0.3501,0.3486,0.3602,0.3619,0.3638,0.3878,0.3669,0.3681,0.3688,0.4238,0.4247,0.4255,0,0,0,0,0,0,0.3641,0.3651,0.3718,0.3664,0.3665,0.3564,0.3615,0.3596,0.3618,0.3591,0.3587,0.3539,0.3596,0.362,0.3774,0.3882,0.3686,0.3697,0.4229,0.4241,0.4251,0.4379,0,0,0,0,0,0,0.364,0.3653,0.3712,0.3667,0.3668,0.383,0.362,0.3599,0.3609,0.359,0.3626,0.3627,0.3592,0.3756,0.3786,0.3895,0.3707,0.4219,0.4234,0.4248,0.4365,0.4393,0.4417,0,0,0,0,0,0.3638,0.3775,0.3718,0.3724,0.3747,0.3836,0.3839,0.3739,0.3619,0.3716,0.3679,0.3627,0.3866,0.3774,0.3807,0.3922,0.4212,0.423,0.4247,0.4353,0.4387,0.4416,0,0,0,0,0,0,0.3819,0.3767,0.3702,0.383,0.3852,0.3802,0.3871,0.3789,0.3837,0.3808,0.374,0.375,0.394,0.3945,0.3841,0.4135,0.4031,0.4055,0.4101,0.4133,0.4159,0.4148,0.3717,0,0,0,0,0,0.3875,0.393,0.3898,0.401,0.4029,0.3956,0.3975,0.392,0.3926,0.3933,0.393,0.3958,0.4052,0.409,0.4201,0.4374,0.4368,0.4472,0.4498,0.4519,0.4541,0.4622,0.4655,0.4311,0.4311,0.4311,0,0,0.3956,0.395,0.3973,0.4044,0.4042,0.4095,0.3958,0.4039,0.4066,0.3962,0.4049,0.4096,0.4135,0.4301,0.4384,0.4298,0.4623,0.4541,0.4557,0.4568,0.4643,0.4675,0.4704,0.4323,0.4321,0.4319,0,0,0.412,0.4176,0.4231,0.4272,0.4289,0.4269,0.4303,0.4292,0.4288,0.4401,0.4315,0.4426,0.455,0.4579,0.4607,0.4877,0.4792,0.4905,0.4987,0.5066,0.5092,0.5115,0.5155,0.518,0.4873,0.4873,0.4873,0,0.4199,0.4261,0.4285,0.4354,0.4355,0.4347,0.4394,0.4458,0.4486,0.4483,0.4463,0.4607,0.4688,0.4801,0.4886,0.4937,0.4924,0.4839,0.509,0.5113,0.5134,0.5169,0.5195,0.4881,0.488,0.4879,0.4879,0,0.4345,0.4404,0.4484,0.4511,0.4577,0.4661,0.4688,0.4764,0.4741,0.4725,0.4868,0.4964,0.5,0.5084,0.5073,0.5256,0.5182,0.5136,0.4981,0.5175,0.5202,0.5226,0.4893,0.489,0.4888,0.4885,0,0,0.4413,0.4531,0.4537,0.4553,0.4638,0.4707,0.4814,0.4863,0.4887,0.499,0.5008,0.5236,0.5221,0.5262,0.5276,0.5371,0.5566,0.5312,0.5312,0.53,0.569,0.56,0.5617,0.5513,0.5519,0.5523,0.5645,0,0.4462,0.4583,0.4615,0.4724,0.4779,0.4808,0.4896,0.4965,0.5021,0.5093,0.5183,0.5274,0.5302,0.5324,0.5441,0.5532,0.5636,0.5535,0.555,0.5552,0.5405,0.5647,0.553,0.5625,0.5668,0.5672,0.5675,0,0.4501,0.4578,0.4659,0.4761,0.4784,0.4841,0.4915,0.5004,0.5114,0.5153,0.5226,0.5281,0.5449,0.5462,0.5683,0.5586,0.5683,0.5755,0.5759,0.5646,0.5511,0.5447,0.5667,0.5527,0.5712,0.5709,0.5706,0,0.4451,0.4585,0.4632,0.4672,0.4807,0.4815,0.4873,0.4977,0.5025,0.5167,0.519,0.5362,0.5426,0.5592,0.5746,0.5713,0.5967,0.5922,0.5932,0.5922,0.5822,0.5795,0.5866,0.6132,0.6132,0.6132,0.6131,0,0.4442,0.4492,0.4608,0.4642,0.4688,0.4791,0.4833,0.4914,0.5011,0.5061,0.5195,0.5253,0.5466,0.56,0.5761,0.5908,0.5968,0.6014,0.5982,0.5867,0.5844,0.5708,0.5639,0.6136,0.6135,0.6134,0.6133,0,0.4367,0.4447,0.4515,0.4633,0.4654,0.4682,0.4755,0.48,0.4904,0.4966,0.4996,0.5173,0.5354,0.5545,0.5817,0.5888,0.5929,0.6107,0.5938,0.5887,0.5749,0.5692,0.5557,0.5388,0.6157,0.6156,0.6155,0,0.4347,0.4369,0.4465,0.4478,0.4507,0.4558,0.4574,0.47,0.4736,0.4901,0.4912,0.5101,0.5228,0.5552,0.575,0.5989,0.5867,0.5991,0.5968,0.5783,0.5697,0.5469,0.5318,0.589,0.5888,0.5885,0.5883,0,0.4289,0.4297,0.4341,0.4355,0.4362,0.4402,0.4439,0.4443,0.4586,0.4657,0.4763,0.489,0.5191,0.5396,0.5684,0.582,0.5716,0.5946,0.5825,0.5584,0.5275,0.5077,0.573,0.5862,0.5864,0.5866,0.5867,0.5868,0.4205,0.4196,0.4216,0.4217,0.4235,0.4224,0.4189,0.4249,0.4289,0.4363,0.4578,0.4722,0.5111,0.5508,0.5567,0.5608,0.5551,0.5592,0.5566,0.5371,0.5128,0.5716,0.5753,0.5754,0.5755,0.5756,0.5757,0,0.4083,0.4082,0.4086,0.4065,0.4028,0.409,0.4081,0.4026,0.4006,0.4177,0.4296,0.4665,0.4923,0.5181,0.5446,0.5328,0.5073,0.5183,0.4876,0.4768,0.5391,0.53,0.5152,0.5152,0.5152,0.5152,0.5152,0.5152,0.4016,0.3965,0.3967,0.3863,0.3849,0.3739,0.3707,0.3659,0.3727,0.3823,0.3993,0.4238,0.4683,0.5151,0.5196,0.507,0.4685,0.4496,0.4393,0.4901,0.4936,0.4969,0.4868,0.4632,0.4632,0.3618,0.361,0.3605]},{"header":{"parameterUnit":"m.s-1","parameterCategory":2,"la1":30.2991,"la2":30.254,"lo1":-89.0895,"lo2":-89.0444,"dx":0.0017,"dy":0.0017,"nx":28,"ny":28,"refTime":"2022-12-05T15:00:00:Z","depth":"0","parameterNumber":3,"parameterNumberName":"V-component_of_CURRENTS"},"data":[0,0,0,0,0,0,0,0,0,0,0,0,0,0,0,0,0,0,0,0,0,0,0,0,0,0,0,0,0,0,0,0,0,0,0,0,0,0,0,0,0,0,0,0,0,0,0,0,0,0,0,0,0,0,0,0,0,0,0.0274,0.0274,0,0.0273,0.0273,0.0274,0.0178,0.0175,0.0172,0.017,0.0173,0.0176,0.0178,0,0,0,0,0,0,0,0,0,0,0,0,0,0.0227,0.0229,0.0274,0.0274,0.0273,0.0273,0.0273,0.0274,0.0178,0.0175,0.0171,0.0168,0.0172,0.0175,0.0179,0,0,0,0,0,0,0,0,0,0,0,0,0,0.0242,0.0229,0.0274,0.0224,0.0219,0.0273,0.0273,0.0274,0.0179,0.0175,0.0171,0.0167,0.0171,0.0175,0.0179,0.0287,0,0,0.0191,0.0193,0,0,0,0,0,0,0,0,0.0241,0.0244,0.0231,0.0227,0.0222,0.0219,0.0258,0.0277,0.018,0.0197,0.0169,0.0165,0.019,0.0192,0.0205,0.0287,0.0288,0.0192,0.0194,0.0196,0.0197,0,0,0,0,0,0,0,0.024,0.0244,0.0276,0.0231,0.0226,0.0213,0.021,0.0262,0.0219,0.0195,0.0188,0.0184,0.0187,0.0202,0.0205,0.0288,0.0192,0.0195,0.0198,0.0199,0.0465,0.0469,0,0,0,0,0,0,0.0238,0.0243,0.0276,0.0276,0.0218,0.0216,0.0214,0.0226,0.0218,0.0212,0.0188,0.018,0.0197,0.02,0.0205,0.0328,0.0196,0.02,0.0202,0.046,0.0466,0.0471,0,0,0,0,0,0,0.0237,0.0242,0.0276,0.0256,0.0259,0.0221,0.0236,0.0228,0.0243,0.0212,0.0206,0.0209,0.0194,0.0199,0.0267,0.0327,0.0202,0.0205,0.0455,0.0462,0.0469,0.0578,0,0,0,0,0,0,0.0236,0.0242,0.0279,0.0257,0.026,0.0336,0.024,0.0231,0.0245,0.0235,0.023,0.0224,0.0191,0.0261,0.0271,0.033,0.0208,0.0449,0.0458,0.0466,0.0568,0.0587,0.0604,0,0,0,0,0,0.0235,0.0318,0.0281,0.0286,0.0302,0.0339,0.0343,0.0301,0.0251,0.0292,0.0277,0.0224,0.0322,0.0269,0.0279,0.034,0.0445,0.0456,0.0466,0.056,0.0584,0.0604,0,0,0,0,0,0,0.0364,0.0315,0.0274,0.0349,0.0345,0.0322,0.0371,0.0328,0.0351,0.0342,0.029,0.0289,0.0372,0.0363,0.0304,0.0449,0.0375,0.0388,0.0444,0.0466,0.0484,0.0516,0.0212,0,0,0,0,0,0.0397,0.0419,0.0382,0.0449,0.0451,0.0412,0.0427,0.0393,0.0395,0.0398,0.0383,0.0392,0.0433,0.0448,0.0485,0.0574,0.0561,0.0623,0.064,0.0655,0.0694,0.0759,0.0785,0.0505,0.0505,0.0505,0,0,0.0462,0.0446,0.0458,0.0473,0.0468,0.0498,0.0414,0.0456,0.0483,0.0404,0.0466,0.0465,0.0475,0.056,0.0596,0.055,0.0719,0.0669,0.068,0.0712,0.0773,0.08,0.0823,0.0512,0.0511,0.051,0,0,0.0588,0.0593,0.0629,0.0632,0.0625,0.0607,0.062,0.0602,0.06,0.0658,0.0609,0.0658,0.07,0.0722,0.0737,0.0895,0.0819,0.0893,0.1,0.1063,0.1085,0.1105,0.1066,0.1082,0.0892,0.0892,0.0892,0,0.0655,0.0695,0.0661,0.0697,0.0708,0.0656,0.07,0.0721,0.0725,0.0746,0.0695,0.0789,0.0789,0.0897,0.0936,0.0936,0.0918,0.0902,0.1083,0.1103,0.1121,0.1077,0.1093,0.0899,0.0898,0.0897,0.0897,0,0.0776,0.0812,0.0857,0.0853,0.0881,0.0928,0.0914,0.0953,0.093,0.0923,0.1018,0.1027,0.1072,0.1083,0.1053,0.1194,0.1115,0.1097,0.1015,0.1155,0.1099,0.1114,0.0908,0.0906,0.0904,0.0902,0,0,0.0875,0.0915,0.0925,0.094,0.0954,0.099,0.1065,0.1108,0.1165,0.1178,0.1258,0.1326,0.1305,0.1328,0.1304,0.1357,0.1443,0.1284,0.1284,0.1222,0.1507,0.137,0.137,0.1445,0.1449,0.1453,0.1391,0,0.0956,0.1042,0.104,0.1133,0.117,0.1158,0.1234,0.1275,0.1302,0.1381,0.1402,0.1478,0.1405,0.1431,0.1482,0.1484,0.1498,0.1458,0.1403,0.1401,0.1245,0.1392,0.1336,0.1272,0.1405,0.1407,0.1409,0,0.1038,0.1082,0.1172,0.1241,0.1259,0.1312,0.1405,0.1467,0.1561,0.1586,0.1654,0.1655,0.1754,0.1667,0.1723,0.1693,0.1617,0.1587,0.1583,0.1441,0.1296,0.117,0.1292,0.099,0.143,0.1428,0.1427,0,0.1085,0.1171,0.1241,0.1262,0.134,0.1389,0.1436,0.1526,0.16,0.1721,0.1786,0.1868,0.1925,0.1904,0.1831,0.1784,0.1863,0.178,0.1566,0.1549,0.149,0.1462,0.1307,0.1809,0.1809,0.1809,0.181,0,0.1151,0.121,0.1269,0.1309,0.1412,0.1445,0.157,0.163,0.1747,0.188,0.1893,0.2019,0.1998,0.2019,0.1913,0.18,0.1919,0.1623,0.1565,0.1518,0.1494,0.1216,0.1043,0.1807,0.1807,0.1808,0.1808,0,0.1185,0.1224,0.1306,0.1395,0.1431,0.1501,0.1626,0.173,0.1823,0.2002,0.2048,0.2159,0.2208,0.2123,0.2099,0.1897,0.1609,0.1709,0.1601,0.1532,0.1001,0.0837,0.0683,0.0493,0.1454,0.1451,0.1449,0,0.1209,0.1253,0.1354,0.141,0.145,0.1556,0.1647,0.1756,0.1876,0.2104,0.2209,0.2301,0.2428,0.2291,0.2007,0.1774,0.1526,0.1455,0.1369,0.0997,0.0774,0.0702,0.0548,0.1301,0.1298,0.1295,0.1292,0,0.1248,0.1275,0.1341,0.1454,0.1547,0.1667,0.1805,0.1911,0.2085,0.2257,0.2502,0.2629,0.25,0.2306,0.1924,0.1712,0.1187,0.1376,0.1081,0.0728,0.0563,0.0342,0.123,0.1266,0.1268,0.127,0.1272,0.1273,0.1267,0.131,0.1396,0.1508,0.1617,0.1778,0.1907,0.209,0.2313,0.2635,0.2726,0.2997,0.2632,0.215,0.1721,0.0904,0.0964,0.0658,0.0508,0.0485,0.0263,0.1031,0.0946,0.0947,0.0948,0.0948,0.0949,0,0.1291,0.1351,0.1452,0.1594,0.1727,0.1789,0.2022,0.2191,0.2484,0.2842,0.3097,0.3186,0.253,0.1898,0.0815,0.0179,-0.0023,-0.014,-0.0237,-0.0343,0.0429,0.0378,0.0061,0.0061,0.0061,0.0062,0.0062,0.0062,0.1309,0.1395,0.1454,0.1665,0.1779,0.199,0.2137,0.2412,0.2707,0.3203,0.3513,0.3757,0.3375,0.1343,-0.0158,-0.0546,-0.0982,-0.1039,-0.1261,-0.0744,-0.0679,-0.0618,-0.0703,-0.1243,-0.1244,-0.1955,-0.1963,-0.1968]}],[{"header":{"parameterUnit":"m.s-1","parameterCategory":2,"la1":30.2991,"la2":30.254,"lo1":-89.0895,"lo2":-89.0444,"dx":0.0017,"dy":0.0017,"nx":28,"ny":28,"refTime":"2022-12-05T15:00:00:Z","depth":"2","parameterNumber":2,"parameterNumberName":"U-component_of_CURRENTS"},"data":[0,0,0,0,0,0,0,0,0,0,0,0,0,0,0,0,0,0,0,0,0,0,0,0,0,0,0,0,0,0,0,0,0,0,0,0,0,0,0,0,0,0,0,0,0,0,0,0,0,0,0,0,0,0,0,0,0,0,0.2425,0.2425,0,0.2463,0.2464,0.2464,0.2516,0.2517,0.2518,0.252,0.2672,0.2675,0.2678,0,0,0,0,0,0,0,0,0,0,0,0,0,0.2358,0.2359,0.2425,0.2425,0.2426,0.2463,0.2464,0.2464,0.2516,0.2517,0.2519,0.252,0.2671,0.2675,0.2678,0,0,0,0,0,0,0,0,0,0,0,0,0,0.2388,0.2359,0.2424,0.2459,0.2463,0.2463,0.2464,0.2464,0.2516,0.2517,0.2519,0.2521,0.267,0.2674,0.2679,0.267,0,0,0.2692,0.2694,0,0,0,0,0,0,0,0,0.2386,0.239,0.2453,0.2457,0.2461,0.249,0.2496,0.254,0.2515,0.2492,0.252,0.2522,0.2623,0.2631,0.2628,0.2678,0.2684,0.2693,0.2695,0.2697,0.2698,0,0,0,0,0,0,0,0.2384,0.2388,0.2436,0.2454,0.2459,0.246,0.2466,0.2504,0.2546,0.2494,0.2499,0.2508,0.2625,0.2623,0.2632,0.2686,0.2693,0.2696,0.2699,0.2701,0.2884,0.2886,0,0,0,0,0,0,0.2386,0.2386,0.2435,0.2438,0.2431,0.246,0.2467,0.2476,0.2544,0.2556,0.2506,0.251,0.2615,0.2627,0.2638,0.2739,0.2697,0.2701,0.2704,0.2882,0.2884,0.2887,0,0,0,0,0,0,0.2384,0.239,0.2434,0.2416,0.2422,0.246,0.2469,0.2476,0.2487,0.2552,0.2566,0.2513,0.2617,0.2632,0.2674,0.2742,0.2703,0.2707,0.2879,0.2883,0.2886,0.2873,0,0,0,0,0,0,0.2382,0.2389,0.24,0.2416,0.2423,0.2449,0.2468,0.2475,0.2491,0.2496,0.2562,0.2577,0.2619,0.2666,0.2678,0.2747,0.2711,0.2876,0.2881,0.2885,0.2871,0.2875,0.288,0,0,0,0,0,0.238,0.2393,0.24,0.2407,0.2436,0.245,0.2453,0.2484,0.2489,0.2498,0.2531,0.2576,0.2704,0.2669,0.2683,0.2755,0.2874,0.2879,0.2884,0.2869,0.2874,0.2879,0,0,0,0,0,0,0.2378,0.2401,0.2409,0.2431,0.2445,0.2461,0.2481,0.248,0.2507,0.2529,0.2567,0.2584,0.2673,0.2697,0.2658,0.2825,0.2812,0.282,0.2796,0.2802,0.2806,0.2788,0.2715,0,0,0,0,0,0.2378,0.239,0.2411,0.2426,0.2442,0.2454,0.2464,0.2484,0.2508,0.2521,0.2567,0.2631,0.27,0.273,0.2803,0.2849,0.2883,0.2919,0.2924,0.2927,0.2925,0.2995,0.3005,0.2903,0.2903,0.2903,0,0,0.237,0.2395,0.2394,0.2426,0.2445,0.246,0.2465,0.2496,0.2516,0.2536,0.2592,0.2653,0.2719,0.2802,0.2845,0.2827,0.298,0.2933,0.2935,0.2931,0.3001,0.3011,0.3019,0.2906,0.2906,0.2905,0,0,0.2369,0.2397,0.2407,0.2429,0.2471,0.2479,0.2484,0.2516,0.2548,0.2581,0.2636,0.27,0.2785,0.2848,0.2887,0.2948,0.3012,0.301,0.3001,0.307,0.3078,0.3085,0.3156,0.3169,0.2997,0.2997,0.2997,0,0.2356,0.239,0.241,0.2441,0.2474,0.2483,0.2511,0.2528,0.2569,0.2618,0.2611,0.2774,0.2806,0.2921,0.2934,0.2959,0.3011,0.2967,0.3072,0.308,0.3088,0.3158,0.3174,0.2997,0.2997,0.2997,0.2997,0,0.2371,0.2404,0.2422,0.2459,0.2487,0.2522,0.2556,0.2602,0.2632,0.2658,0.2788,0.2827,0.2924,0.296,0.2944,0.3053,0.3078,0.3077,0.3047,0.3097,0.3169,0.3185,0.2997,0.2997,0.2997,0.2997,0,0,0.2319,0.2409,0.2417,0.2448,0.2518,0.2531,0.2602,0.2669,0.2715,0.2781,0.2857,0.2948,0.2984,0.3028,0.3066,0.3091,0.316,0.3089,0.3093,0.3139,0.333,0.3254,0.3264,0.3183,0.3185,0.3187,0.3363,0,0.2325,0.2381,0.244,0.2484,0.2514,0.2592,0.2639,0.2709,0.2771,0.2841,0.2927,0.3011,0.301,0.3058,0.3091,0.3154,0.3201,0.3113,0.3293,0.3298,0.3207,0.3279,0.3042,0.317,0.3378,0.3381,0.3383,0,0.2321,0.2365,0.2426,0.2513,0.2537,0.2571,0.2689,0.2738,0.2854,0.2918,0.3034,0.3085,0.3177,0.3136,0.329,0.3243,0.3282,0.3311,0.3319,0.3258,0.3251,0.3155,0.3191,0.341,0.3408,0.3406,0.3404,0,0.2269,0.2353,0.2406,0.2438,0.2532,0.2603,0.2657,0.2774,0.2856,0.2976,0.3048,0.3172,0.3254,0.3323,0.3375,0.3349,0.3512,0.3495,0.3485,0.3482,0.3317,0.3293,0.3597,0.3596,0.3596,0.3596,0.3595,0,0.2261,0.2293,0.2385,0.2417,0.2476,0.2566,0.2666,0.2745,0.2892,0.2976,0.3082,0.3185,0.3299,0.3399,0.3422,0.3508,0.3577,0.3501,0.3523,0.3309,0.3283,0.3511,0.3499,0.3602,0.3601,0.3599,0.3598,0,0.2196,0.2266,0.2308,0.2416,0.2458,0.2495,0.2671,0.273,0.2887,0.3008,0.3057,0.3246,0.3381,0.3477,0.3599,0.3589,0.365,0.366,0.3397,0.3383,0.3569,0.3555,0.3692,0.3691,0.369,0.3689,0.3688,0,0.2168,0.2192,0.2282,0.2316,0.2377,0.247,0.2531,0.2705,0.2784,0.3035,0.3072,0.3279,0.3381,0.3561,0.3577,0.365,0.3686,0.3452,0.3338,0.3572,0.3581,0.3568,0.3555,0.3138,0.3133,0.3129,0.3125,0,0.212,0.2154,0.2206,0.2244,0.2308,0.2386,0.2499,0.2563,0.2752,0.2869,0.3041,0.316,0.3369,0.3357,0.3452,0.344,0.3411,0.3369,0.3711,0.313,0.3057,0.3063,0.3068,0.3088,0.3091,0.3094,0.3096,0.3098,0.2084,0.2084,0.2143,0.2172,0.2235,0.2281,0.2309,0.2417,0.2524,0.2662,0.2877,0.2982,0.3119,0.3156,0.3099,0.306,0.3285,0.3147,0.3157,0.3172,0.3057,0.2983,0.298,0.2983,0.2986,0.2988,0.299,0,0.2027,0.2038,0.2065,0.2091,0.2104,0.2207,0.226,0.2248,0.2278,0.2472,0.2611,0.2524,0.26,0.272,0.2635,0.2662,0.2593,0.2541,0.2443,0.2486,0.2523,0.2368,0.2112,0.2109,0.2105,0.2102,0,0,0.1995,0.1989,0.1986,0.196,0.2012,0.1987,0.2006,0.1965,0.2036,0.2071,0.2156,0.2467,0.2659,0.234,0.2337,0.2216,0.2309,0.2123,0.2844,0.2773,0.2804,0.2911,0.2727,0,0,0,0,0]},{"header":{"parameterUnit":"m.s-1","parameterCategory":2,"la1":30.2991,"la2":30.254,"lo1":-89.0895,"lo2":-89.0444,"dx":0.0017,"dy":0.0017,"nx":28,"ny":28,"refTime":"2022-12-05T15:00:00:Z","depth":"2","parameterNumber":3,"parameterNumberName":"V-component_of_CURRENTS"},"data":[0,0,0,0,0,0,0,0,0,0,0,0,0,0,0,0,0,0,0,0,0,0,0,0,0,0,0,0,0,0,0,0,0,0,0,0,0,0,0,0,0,0,0,0,0,0,0,0,0,0,0,0,0,0,0,0,0,0,-0.0057,-0.0057,0,-0.0096,-0.0097,-0.0097,-0.0186,-0.0187,-0.0189,-0.019,-0.0457,-0.0463,-0.0468,0,0,0,0,0,0,0,0,0,0,0,0,0,-0.0082,-0.0081,-0.0057,-0.0057,-0.0057,-0.0095,-0.0097,-0.0098,-0.0186,-0.0188,-0.0189,-0.0191,-0.0455,-0.0462,-0.0469,0,0,0,0,0,0,0,0,0,0,0,0,0,-0.0096,-0.0081,-0.0057,-0.0101,-0.0105,-0.0095,-0.0097,-0.0098,-0.0186,-0.0188,-0.0189,-0.0191,-0.0453,-0.0461,-0.047,-0.0486,0,0,-0.0497,-0.0501,0,0,0,0,0,0,0,0,-0.0095,-0.0096,-0.0095,-0.0098,-0.0103,-0.0133,-0.0203,-0.0237,-0.0185,-0.0161,-0.019,-0.0192,-0.0364,-0.0381,-0.0389,-0.0498,-0.0509,-0.0498,-0.0503,-0.0507,-0.0509,0,0,0,0,0,0,0,-0.0094,-0.0095,-0.0078,-0.0095,-0.0099,-0.0126,-0.0131,-0.0209,-0.026,-0.0164,-0.0169,-0.0163,-0.0369,-0.038,-0.0396,-0.0513,-0.0497,-0.0505,-0.0511,-0.0514,-0.0711,-0.0711,0,0,0,0,0,0,-0.0074,-0.0093,-0.0077,-0.0079,-0.0097,-0.0124,-0.0129,-0.0126,-0.0255,-0.0272,-0.0161,-0.0167,-0.0364,-0.0386,-0.0406,-0.0455,-0.0507,-0.0515,-0.052,-0.0711,-0.0711,-0.0711,0,0,0,0,0,0,-0.0074,-0.0072,-0.0075,-0.0083,-0.0084,-0.012,-0.0117,-0.0126,-0.0139,-0.0249,-0.0273,-0.0165,-0.0366,-0.0394,-0.0454,-0.0466,-0.0519,-0.0527,-0.0711,-0.0711,-0.0711,-0.054,0,0,0,0,0,0,-0.0075,-0.0072,-0.0074,-0.0081,-0.0083,-0.0072,-0.0114,-0.0125,-0.0129,-0.0137,-0.026,-0.0286,-0.037,-0.0439,-0.0462,-0.0479,-0.0534,-0.0711,-0.0711,-0.0711,-0.0545,-0.0534,-0.0524,0,0,0,0,0,-0.0076,-0.0073,-0.0074,-0.0072,-0.008,-0.0071,-0.0075,-0.0112,-0.0127,-0.0132,-0.0193,-0.0283,-0.0457,-0.0445,-0.0472,-0.0492,-0.0711,-0.0711,-0.0711,-0.055,-0.0536,-0.0524,0,0,0,0,0,0,-0.0099,-0.008,-0.0083,-0.0078,-0.0071,-0.0084,-0.0094,-0.0098,-0.0145,-0.0163,-0.0261,-0.0291,-0.0363,-0.044,-0.0424,-0.0551,-0.0608,-0.0613,-0.0477,-0.0465,-0.0454,-0.0423,-0.0541,0,0,0,0,0,-0.0094,-0.0081,-0.007,-0.0065,-0.0062,-0.0069,-0.0072,-0.0085,-0.0116,-0.0138,-0.0211,-0.0302,-0.0381,-0.0427,-0.0518,-0.0565,-0.0618,-0.0605,-0.0594,-0.0584,-0.0578,-0.0639,-0.0632,-0.071,-0.071,-0.071,0,0,-0.0094,-0.0087,-0.0077,-0.0066,-0.0071,-0.0047,-0.0079,-0.0076,-0.0063,-0.0164,-0.0191,-0.0271,-0.0386,-0.0445,-0.0486,-0.051,-0.0584,-0.0584,-0.0574,-0.0574,-0.0638,-0.063,-0.0623,-0.071,-0.071,-0.071,0,0,-0.0071,-0.0086,-0.0056,-0.005,-0.004,-0.004,-0.0029,-0.0034,-0.0054,-0.0065,-0.0145,-0.0201,-0.0321,-0.0387,-0.044,-0.0422,-0.0528,-0.048,-0.0395,-0.0452,-0.0445,-0.044,-0.0462,-0.046,-0.0469,-0.0468,-0.0468,0,-0.007,-0.0037,-0.0048,-0.0022,-0.0011,-0.0026,0.001,-0.0002,-0.0024,-0.0034,-0.0067,-0.0201,-0.029,-0.0349,-0.0342,-0.0397,-0.0439,-0.0425,-0.0433,-0.043,-0.0428,-0.0452,-0.0452,-0.046,-0.0461,-0.0462,-0.0462,0,-0.0015,0.0004,0.0015,0.0052,0.0058,0.0079,0.0077,0.0071,0.0054,0.0045,-0.0013,-0.0104,-0.0182,-0.0225,-0.0275,-0.0313,-0.0349,-0.041,-0.0453,-0.0408,-0.0438,-0.0441,-0.0448,-0.0451,-0.0454,-0.0456,0,0,0.0025,0.0054,0.006,0.0089,0.0096,0.0119,0.0125,0.0139,0.0156,0.0108,0.0114,0.0007,-0.0035,-0.0097,-0.0177,-0.0216,-0.0214,-0.0291,-0.0298,-0.0287,-0.0317,-0.0337,-0.0343,-0.0279,-0.028,-0.028,-0.033,0,0.008,0.0147,0.014,0.0205,0.0243,0.0215,0.0235,0.0234,0.0213,0.0209,0.0122,0.0083,0.0009,-0.0022,-0.0069,-0.0194,-0.0222,-0.0194,-0.0386,-0.0391,-0.0394,-0.0348,-0.0321,-0.0364,-0.0334,-0.0334,-0.0335,0,0.0152,0.0186,0.0253,0.0296,0.0309,0.0335,0.0356,0.0375,0.0348,0.0326,0.0277,0.0203,0.0138,0.0067,-0.0085,-0.0067,-0.017,-0.0257,-0.0263,-0.0347,-0.0418,-0.0416,-0.0372,-0.0341,-0.0341,-0.034,-0.034,0,0.0213,0.027,0.0324,0.0337,0.0378,0.039,0.0412,0.0407,0.0438,0.04,0.041,0.0304,0.0264,0.0114,-0.0055,-0.0077,-0.0219,-0.0282,-0.0389,-0.0391,-0.044,-0.0446,-0.038,-0.038,-0.038,-0.038,-0.038,0,0.028,0.0328,0.0356,0.0389,0.0463,0.0459,0.0527,0.0526,0.0538,0.0598,0.0481,0.0492,0.0271,0.0161,-0.0012,-0.0195,-0.019,-0.036,-0.0407,-0.0378,-0.0377,-0.0433,-0.0438,-0.0382,-0.0381,-0.0381,-0.0381,0,0.034,0.0355,0.0434,0.0479,0.0496,0.0552,0.062,0.0675,0.0667,0.0735,0.073,0.0636,0.049,0.0271,0.0036,-0.0122,-0.0314,-0.0382,-0.0311,-0.035,-0.0453,-0.0449,-0.0503,-0.0504,-0.0505,-0.0506,-0.0506,0,0.0376,0.0417,0.0503,0.0553,0.0572,0.0647,0.0708,0.0738,0.0808,0.0837,0.0885,0.0762,0.0699,0.0353,0.0039,-0.0259,-0.0306,-0.0421,-0.0468,-0.0425,-0.0467,-0.0461,-0.0457,-0.0452,-0.0452,-0.0452,-0.0452,0,0.0439,0.0464,0.0524,0.0641,0.0713,0.0813,0.0902,0.0984,0.1039,0.1081,0.1133,0.1077,0.0752,0.0447,0.0027,-0.0178,-0.0378,-0.0434,-0.0419,-0.0426,-0.0382,-0.0421,-0.0418,-0.0454,-0.0454,-0.0454,-0.0453,-0.0453,0.0481,0.054,0.0622,0.0735,0.0834,0.0975,0.1079,0.1174,0.1297,0.1383,0.1327,0.1254,0.0895,0.0356,-0.0004,-0.0382,-0.0382,-0.0512,-0.0509,-0.0507,-0.0493,-0.0454,-0.0534,-0.0534,-0.0534,-0.0535,-0.0535,0,0.0534,0.0602,0.0711,0.0859,0.0992,0.1025,0.1209,0.131,0.1465,0.1516,0.1536,0.121,0.0845,0.0438,-0.0125,-0.0464,-0.0491,-0.0562,-0.0522,-0.0519,-0.0516,-0.0502,-0.0546,-0.0547,-0.0547,-0.0548,0,0,0.0564,0.0678,0.0744,0.097,0.1073,0.1263,0.138,0.1498,0.1585,0.1636,0.1592,0.1482,0.0978,0.0583,0.0105,-0.0215,-0.028,-0.0276,-0.0234,-0.0127,-0.012,-0.046,-0.0431,0,0,0,0,0]}],[{"header":{"parameterUnit":"m.s-1","parameterCategory":2,"la1":30.2991,"la2":30.254,"lo1":-89.0895,"lo2":-89.0444,"dx":0.0017,"dy":0.0017,"nx":28,"ny":28,"refTime":"2022-12-05T15:00:00:Z","depth":"4","parameterNumber":2,"parameterNumberName":"U-component_of_CURRENTS"},"data":[0,0,0,0,0,0,0,0,0,0,0,0,0,0,0,0,0,0,0,0,0,0,0,0,0,0,0,0,0,0,0,0,0,0,0,0,0,0,0,0,0,0,0,0,0,0,0,0,0,0,0,0,0,0,0,0,0,0,0.1315,0.1316,0,0.1356,0.1356,0.1357,0.1389,0.1389,0.139,0.139,0.1355,0.1354,0.1352,0,0,0,0,0,0,0,0,0,0,0,0,0,0.1205,0.1207,0.1315,0.1316,0.1316,0.1356,0.1356,0.1357,0.1389,0.1389,0.139,0.139,0.1355,0.1354,0.1352,0,0,0,0,0,0,0,0,0,0,0,0,0,0.1248,0.1208,0.1315,0.1338,0.1341,0.1356,0.1356,0.1357,0.1388,0.1389,0.139,0.139,0.1356,0.1354,0.1352,0.1325,0,0,0.1346,0.1345,0,0,0,0,0,0,0,0,0.1246,0.1252,0.1334,0.1337,0.134,0.137,0.1305,0.1343,0.1388,0.1368,0.139,0.1391,0.1353,0.1352,0.1356,0.1323,0.1322,0.1345,0.1344,0.1343,0.1343,0,0,0,0,0,0,0,0.1243,0.125,0.1329,0.1335,0.1338,0.1327,0.1334,0.1312,0.1353,0.137,0.1373,0.138,0.1354,0.1358,0.1355,0.1321,0.1345,0.1344,0.1342,0.1342,0.1412,0.1415,0,0,0,0,0,0,0.1244,0.1248,0.1328,0.1331,0.1296,0.1328,0.1336,0.1358,0.1356,0.1357,0.138,0.1382,0.1361,0.1358,0.1354,0.1422,0.1343,0.1341,0.134,0.1409,0.1413,0.1416,0,0,0,0,0,0,0.1242,0.1252,0.1326,0.1291,0.13,0.133,0.1353,0.1358,0.1395,0.1364,0.1364,0.1416,0.1362,0.1357,0.1394,0.1417,0.134,0.1339,0.1405,0.141,0.1414,0.1493,0,0,0,0,0,0,0.1239,0.1251,0.1275,0.1291,0.1302,0.1365,0.1353,0.1359,0.1397,0.1401,0.1394,0.139,0.1362,0.1397,0.1392,0.1413,0.1337,0.1401,0.1407,0.1413,0.1486,0.15,0.1511,0,0,0,0,0,0.1235,0.1256,0.1276,0.1286,0.1332,0.1366,0.1371,0.1392,0.1399,0.1426,0.144,0.1392,0.143,0.1398,0.1391,0.1412,0.1399,0.1406,0.1412,0.1481,0.1497,0.1511,0,0,0,0,0,0,0.1219,0.1262,0.1284,0.1319,0.1358,0.1373,0.1398,0.1412,0.1444,0.1457,0.1426,0.1424,0.1465,0.144,0.1406,0.1457,0.1408,0.1414,0.1462,0.1477,0.1489,0.1516,0.1335,0,0,0,0,0,0.1229,0.1262,0.1301,0.1335,0.1357,0.1386,0.1405,0.1428,0.1452,0.1469,0.147,0.1477,0.1482,0.1484,0.1488,0.1506,0.1506,0.1521,0.1533,0.1543,0.1566,0.1591,0.1606,0.1439,0.1439,0.1439,0,0,0.1232,0.1261,0.1281,0.1336,0.1366,0.1403,0.1401,0.145,0.1485,0.1456,0.1514,0.1521,0.1503,0.1537,0.1551,0.1519,0.1598,0.1552,0.1561,0.1578,0.16,0.1615,0.163,0.1444,0.1443,0.1442,0,0,0.1242,0.1288,0.1316,0.1354,0.1413,0.1436,0.146,0.1508,0.1539,0.1595,0.1588,0.1629,0.163,0.1634,0.1627,0.1712,0.1668,0.1708,0.1777,0.18,0.1813,0.1825,0.1864,0.1878,0.1705,0.1706,0.1706,0,0.1245,0.1294,0.133,0.1368,0.1407,0.1456,0.15,0.1533,0.1592,0.1624,0.1631,0.1689,0.1677,0.1708,0.1753,0.1735,0.175,0.171,0.1813,0.1825,0.1835,0.1872,0.1887,0.171,0.171,0.1709,0.1709,0,0.1273,0.1323,0.1346,0.1416,0.1459,0.1513,0.1566,0.1626,0.1674,0.1705,0.178,0.1794,0.1828,0.1829,0.1817,0.1885,0.1874,0.1827,0.1766,0.1856,0.189,0.1904,0.1717,0.1715,0.1714,0.1713,0,0,0.1249,0.1348,0.136,0.14,0.1498,0.1529,0.1611,0.1689,0.1743,0.1811,0.1876,0.1921,0.1948,0.1948,0.1939,0.197,0.2065,0.1946,0.1944,0.197,0.214,0.2024,0.2027,0.203,0.2033,0.2035,0.214,0,0.1268,0.1339,0.1394,0.1471,0.1511,0.1595,0.1661,0.1738,0.1811,0.1887,0.1926,0.1986,0.198,0.2014,0.2048,0.2064,0.2105,0.2043,0.2064,0.2065,0.1937,0.2039,0.2043,0.215,0.2153,0.2155,0.2157,0,0.1271,0.1323,0.1402,0.1501,0.153,0.1591,0.1718,0.1785,0.1897,0.1957,0.2037,0.2069,0.2154,0.2123,0.2211,0.2175,0.2184,0.2187,0.2189,0.2063,0.1973,0.204,0.2181,0.2179,0.2177,0.2176,0.2174,0,0.1215,0.1322,0.1389,0.1426,0.1547,0.1612,0.1691,0.1812,0.188,0.2014,0.2086,0.2167,0.2234,0.2264,0.2307,0.2269,0.239,0.2316,0.2221,0.2213,0.2247,0.2233,0.2377,0.2377,0.2377,0.2377,0.2376,0,0.1198,0.1247,0.1373,0.1405,0.1491,0.159,0.1698,0.1791,0.1927,0.2008,0.2121,0.2195,0.2277,0.2349,0.2353,0.2351,0.2429,0.2268,0.2238,0.2281,0.227,0.2257,0.2242,0.2381,0.238,0.2379,0.2378,0,0.1122,0.121,0.1276,0.1413,0.1465,0.1525,0.1695,0.1763,0.1918,0.2034,0.2088,0.2249,0.2353,0.2419,0.2483,0.2406,0.2409,0.2381,0.2474,0.2441,0.2206,0.2194,0.228,0.2277,0.2274,0.2272,0.227,0,0.1088,0.1118,0.1257,0.1304,0.1377,0.149,0.1569,0.1738,0.1818,0.2045,0.2086,0.2256,0.2343,0.236,0.2429,0.2447,0.2402,0.2388,0.2261,0.2238,0.22,0.2192,0.2184,0.2266,0.2265,0.2264,0.2264,0,0.1013,0.1074,0.1131,0.1228,0.1317,0.1401,0.1534,0.1578,0.1775,0.1932,0.2042,0.211,0.2229,0.2283,0.2333,0.2325,0.2385,0.2358,0.2362,0.2243,0.2221,0.2184,0.218,0.2254,0.2256,0.2257,0.2257,0,0.0952,0.0969,0.1054,0.1134,0.1227,0.1285,0.1372,0.1484,0.1585,0.1838,0.1869,0.2054,0.2207,0.2223,0.2261,0.2265,0.2205,0.2097,0.2112,0.2124,0.2022,0.1968,0.1926,0,0,0,0,0,0.0883,0.0899,0.0958,0.103,0.1117,0.118,0.1334,0.1428,0.1619,0.165,0.1757,0.1862,0.1951,0.2044,0.2014,0.2177,0.2202,0.213,0.2081,0.2203,0.2214,0.2107,0,0,0,0,0,0,0.0836,0.0879,0.0915,0.093,0.096,0.1047,0.1136,0.1273,0.1309,0.1511,0.1576,0.173,0.1848,0.1943,0.197,0.1997,0.1923,0.2246,0.2241,0.2197,0.2207,0.2216,0.211,0,0,0,0,0]},{"header":{"parameterUnit":"m.s-1","parameterCategory":2,"la1":30.2991,"la2":30.254,"lo1":-89.0895,"lo2":-89.0444,"dx":0.0017,"dy":0.0017,"nx":28,"ny":28,"refTime":"2022-12-05T15:00:00:Z","depth":"4","parameterNumber":3,"parameterNumberName":"V-component_of_CURRENTS"},"data":[0,0,0,0,0,0,0,0,0,0,0,0,0,0,0,0,0,0,0,0,0,0,0,0,0,0,0,0,0,0,0,0,0,0,0,0,0,0,0,0,0,0,0,0,0,0,0,0,0,0,0,0,0,0,0,0,0,0,0.011,0.011,0,0.008,0.008,0.0079,0.0054,0.0054,0.0054,0.0054,-0.0017,-0.0018,-0.002,0,0,0,0,0,0,0,0,0,0,0,0,0,0.0132,0.0132,0.011,0.011,0.011,0.008,0.008,0.0079,0.0054,0.0054,0.0054,0.0054,-0.0016,-0.0018,-0.002,0,0,0,0,0,0,0,0,0,0,0,0,0,0.0113,0.0132,0.011,0.0095,0.0094,0.008,0.008,0.0079,0.0054,0.0054,0.0054,0.0054,-0.0015,-0.0018,-0.002,-0.0033,0,0,-0.0029,-0.003,0,0,0,0,0,0,0,0,0.0114,0.0112,0.0098,0.0096,0.0094,0.0072,0.0062,0.004,0.0054,0.0068,0.0054,0.0054,0.0011,0.0006,-0.0001,-0.0036,-0.0039,-0.0029,-0.003,-0.0032,-0.0032,0,0,0,0,0,0,0,0.0115,0.0113,0.0097,0.0097,0.0095,0.0085,0.0082,0.0057,0.0039,0.0066,0.0065,0.0064,0.0009,0.0002,-0.0003,-0.004,-0.0029,-0.0031,-0.0033,-0.0034,-0.0126,-0.0127,0,0,0,0,0,0,0.0123,0.0114,0.0098,0.0096,0.0106,0.0085,0.0081,0.0078,0.004,0.0034,0.0064,0.0063,0.0006,0.0,-0.0006,-0.003,-0.0031,-0.0034,-0.0035,-0.0125,-0.0126,-0.0127,0,0,0,0,0,0,0.0124,0.0122,0.0099,0.0106,0.0102,0.0085,0.0081,0.0078,0.0071,0.0039,0.0032,0.0062,0.0006,-0.0002,-0.0042,-0.0033,-0.0035,-0.0038,-0.0124,-0.0125,-0.0127,-0.0074,0,0,0,0,0,0,0.0124,0.0122,0.0122,0.0106,0.0102,0.0093,0.0082,0.0077,0.0072,0.007,0.0035,0.0028,0.0005,-0.0038,-0.0044,-0.0036,-0.004,-0.0123,-0.0125,-0.0126,-0.0075,-0.0074,-0.0073,0,0,0,0,0,0.0125,0.0128,0.0122,0.012,0.0103,0.0094,0.0091,0.0076,0.0072,0.007,0.0034,0.0029,-0.0052,-0.0041,-0.0048,-0.0041,-0.0122,-0.0124,-0.0126,-0.0075,-0.0074,-0.0073,0,0,0,0,0,0,0.0134,0.0126,0.0119,0.0118,0.0107,0.009,0.0088,0.008,0.0052,0.0049,0.0016,0.0006,-0.0024,-0.0048,-0.0034,-0.0076,-0.0087,-0.0091,-0.0046,-0.0045,-0.0044,-0.0019,-0.0042,0,0,0,0,0,0.0138,0.0139,0.0126,0.0125,0.0121,0.0105,0.01,0.0093,0.0068,0.0057,0.0031,-0.0004,-0.0037,-0.0054,-0.0085,-0.0109,-0.0143,-0.0111,-0.011,-0.0108,-0.0096,-0.0166,-0.0169,-0.0133,-0.0133,-0.0133,0,0,0.0139,0.0137,0.0136,0.0127,0.0118,0.0123,0.0101,0.0098,0.0101,0.0053,0.004,0.0001,-0.0045,-0.0072,-0.0086,-0.009,-0.0136,-0.0111,-0.0109,-0.0097,-0.0168,-0.0171,-0.0174,-0.0135,-0.0134,-0.0134,0,0,0.0156,0.0142,0.0155,0.015,0.0144,0.0135,0.0136,0.012,0.0109,0.0089,0.0053,0.0013,-0.0029,-0.0062,-0.0084,-0.0098,-0.0128,-0.0106,-0.0076,-0.0144,-0.0147,-0.015,-0.019,-0.0197,-0.0105,-0.0104,-0.0104,0,0.0163,0.0175,0.0156,0.017,0.0172,0.0145,0.0161,0.0146,0.0118,0.0108,0.0091,0.0015,-0.0023,-0.006,-0.0065,-0.0091,-0.0129,-0.0072,-0.014,-0.0144,-0.0148,-0.0189,-0.0197,-0.0102,-0.0102,-0.0103,-0.0103,0,0.0194,0.0202,0.0208,0.0218,0.0215,0.0222,0.0203,0.0195,0.0177,0.0159,0.0117,0.0053,0.0011,-0.0011,-0.004,-0.0083,-0.0099,-0.0129,-0.0136,-0.0148,-0.0191,-0.02,-0.0099,-0.01,-0.01,-0.0101,0,0,0.0219,0.023,0.0234,0.025,0.0243,0.0248,0.0246,0.0238,0.0241,0.0194,0.0184,0.0114,0.0078,0.0049,0.0,-0.0058,-0.0118,-0.0097,-0.0102,-0.0122,-0.0252,-0.0231,-0.0239,-0.0164,-0.0166,-0.0167,-0.0267,0,0.0254,0.0293,0.0286,0.032,0.0336,0.0314,0.0318,0.0303,0.0276,0.0255,0.0182,0.015,0.0102,0.008,0.0013,-0.0087,-0.0143,-0.0087,-0.0251,-0.0255,-0.0222,-0.025,-0.0172,-0.0275,-0.0277,-0.0278,-0.028,0,0.0289,0.0314,0.0353,0.0377,0.0382,0.0397,0.0399,0.0402,0.036,0.0334,0.0282,0.0226,0.0145,0.0099,-0.0069,-0.0032,-0.013,-0.0212,-0.0219,-0.022,-0.0251,-0.0266,-0.0298,-0.0296,-0.0295,-0.0294,-0.0293,0,0.0323,0.0359,0.0396,0.0403,0.0423,0.0438,0.0449,0.0427,0.0439,0.0386,0.038,0.0269,0.0219,0.0075,-0.008,-0.0083,-0.027,-0.0299,-0.0369,-0.0369,-0.0379,-0.0375,-0.042,-0.0419,-0.0419,-0.0419,-0.0419,0,0.0359,0.0389,0.0418,0.0441,0.0491,0.0485,0.0528,0.0516,0.0507,0.0522,0.0429,0.0404,0.0207,0.0083,-0.0067,-0.0239,-0.0264,-0.0362,-0.0398,-0.0354,-0.0347,-0.0385,-0.038,-0.0423,-0.0422,-0.0421,-0.0421,0,0.038,0.0398,0.045,0.049,0.0509,0.0545,0.0599,0.0626,0.0608,0.0622,0.0611,0.0496,0.0333,0.0141,-0.0097,-0.0207,-0.0385,-0.044,-0.0357,-0.0387,-0.044,-0.0431,-0.0528,-0.0528,-0.0528,-0.0528,-0.0528,0,0.0391,0.0419,0.0492,0.0532,0.0555,0.0613,0.0656,0.0673,0.0703,0.0679,0.0685,0.0549,0.0449,0.0146,-0.0073,-0.0354,-0.0394,-0.0476,-0.0476,-0.0428,-0.0454,-0.0444,-0.0435,-0.0528,-0.0528,-0.0528,-0.0528,0,0.0414,0.0442,0.0488,0.0577,0.0637,0.0709,0.077,0.0803,0.0819,0.0805,0.0751,0.0597,0.0415,0.0165,-0.0051,-0.0256,-0.042,-0.0479,-0.048,-0.0481,-0.043,-0.0453,-0.0444,-0.0529,-0.0529,-0.0529,-0.0529,0,0.0432,0.0469,0.0538,0.0614,0.0697,0.0776,0.081,0.0845,0.0876,0.0848,0.0825,0.0628,0.0506,0.0215,0.0012,-0.0183,-0.0237,-0.0296,-0.0308,-0.031,-0.022,-0.0122,-0.0157,0,0,0,0,0,0.0443,0.0491,0.0568,0.0658,0.0743,0.0795,0.0872,0.0897,0.0915,0.0893,0.0866,0.07,0.0406,0.0271,0.008,-0.0009,-0.0283,-0.0239,-0.0359,-0.0532,-0.0531,-0.0462,0,0,0,0,0,0,0.045,0.0522,0.0569,0.0682,0.0747,0.0846,0.0901,0.0916,0.0904,0.0888,0.0734,0.0657,0.0365,0.0514,0.0077,0.0015,-0.0084,-0.0381,-0.0385,-0.0532,-0.0532,-0.0531,-0.0459,0,0,0,0,0]}]]